TimeCST,TemperatureF,Dew PointF,Humidity,Sea Level PressureIn,VisibilityMPH,Wind Direction,Wind SpeedMPH,Gust SpeedMPH,PrecipitationIn,Events,Conditions,WindDirDegrees,DateUTC
12:53 AM,10.9,5.0,77,29.75,10.0,North,9.2,-,N/A,,Mostly Cloudy,350,2014-02-14 06:53:00
1:53 AM,10.9,6.1,81,29.75,10.0,North,11.5,-,N/A,,Overcast,350,2014-02-14 07:53:00
2:53 AM,10.9,5.0,77,29.79,10.0,NW,10.4,-,N/A,,Overcast,320,2014-02-14 08:53:00
3:53 AM,12.0,6.1,77,29.77,10.0,NW,5.8,-,N/A,,Overcast,320,2014-02-14 09:53:00
4:45 AM,12.0,7.0,80,29.73,1.8,NW,8.1,-,0.00,Snow,Light Snow,310,2014-02-14 10:45:00
4:53 AM,12.0,8.1,84,29.79,1.2,NW,8.1,-,0.00,Snow,Light Snow,320,2014-02-14 10:53:00
5:31 AM,10.9,8.1,88,29.75,1.2,NNW,10.4,-,0.00,Snow,Light Snow,340,2014-02-14 11:31:00
5:53 AM,10.9,8.1,88,29.81,1.0,NNW,13.8,-,0.00,Snow,Light Snow,340,2014-02-14 11:53:00
6:23 AM,10.9,8.1,88,29.77,0.8,NNW,12.7,-,0.00,Snow,Light Snow,340,2014-02-14 12:23:00
6:53 AM,10.9,8.1,88,29.83,1.0,North,13.8,-,0.00,Snow,Light Snow,350,2014-02-14 12:53:00
7:00 AM,10.9,8.1,88,29.78,1.2,North,15.0,-,0.00,,Overcast,350,2014-02-14 13:00:00
7:17 AM,10.9,7.0,84,29.80,1.8,NNW,16.1,-,0.00,Snow,Light Snow,340,2014-02-14 13:17:00
7:53 AM,10.0,7.0,87,29.87,1.8,NNW,10.4,-,0.00,Snow,Light Snow,340,2014-02-14 13:53:00
8:19 AM,10.0,7.0,87,29.82,2.5,NNW,13.8,-,0.00,Snow,Light Snow,330,2014-02-14 14:19:00
8:28 AM,10.0,6.1,84,29.82,3.0,NNW,15.0,-,0.00,Snow,Light Snow,340,2014-02-14 14:28:00
8:53 AM,10.0,6.1,84,29.90,9.0,NNW,13.8,-,0.00,Snow,Light Snow,330,2014-02-14 14:53:00
9:53 AM,10.9,5.0,77,29.93,10.0,North,17.3,-,0.00,,Overcast,350,2014-02-14 15:53:00
10:53 AM,12.0,6.1,77,29.96,10.0,NNW,18.4,-,N/A,,Overcast,340,2014-02-14 16:53:00
11:53 AM,12.0,5.0,73,29.97,10.0,North,21.9,-,N/A,,Partly Cloudy,350,2014-02-14 17:53:00
12:19 PM,12.0,5.0,73,29.91,10.0,NW,16.1,-,N/A,,Mostly Cloudy,320,2014-02-14 18:19:00
12:43 PM,12.0,6.1,77,29.91,10.0,NW,18.4,-,N/A,,Scattered Clouds,320,2014-02-14 18:43:00
12:53 PM,12.0,5.0,73,29.96,10.0,NW,17.3,-,N/A,,Clear,320,2014-02-14 18:53:00
1:31 PM,12.9,6.1,74,29.92,10.0,NW,19.6,-,N/A,,Mostly Cloudy,310,2014-02-14 19:31:00
1:50 PM,12.2,6.8,79,29.92,9.0,NW,19.6,-,N/A,,Scattered Clouds,320,2014-02-14 19:50:00
1:53 PM,12.9,6.1,74,29.98,9.0,NW,17.3,-,N/A,,Partly Cloudy,320,2014-02-14 19:53:00
2:53 PM,12.9,6.1,74,30.01,10.0,NW,20.7,-,N/A,,Clear,310,2014-02-14 20:53:00
3:53 PM,12.0,5.0,73,30.02,10.0,WNW,15.0,-,N/A,,Clear,300,2014-02-14 21:53:00
4:53 PM,10.9,3.9,73,30.04,10.0,WNW,16.1,-,N/A,,Clear,300,2014-02-14 22:53:00
5:53 PM,7.0,3.0,84,30.07,10.0,WNW,13.8,-,N/A,,Clear,300,2014-02-14 23:53:00
6:53 PM,3.9,-0.0,84,30.08,10.0,WNW,11.5,-,N/A,,Clear,290,2014-02-15 00:53:00
7:53 PM,1.9,-0.9,88,30.09,10.0,WNW,9.2,-,N/A,,Clear,290,2014-02-15 01:53:00
8:53 PM,-0.9,-4.0,87,30.12,10.0,WNW,10.4,-,N/A,,Clear,290,2014-02-15 02:53:00
9:53 PM,-2.9,-5.1,90,30.12,10.0,WNW,8.1,-,N/A,,Clear,290,2014-02-15 03:53:00
10:53 PM,-2.0,-5.1,87,30.13,10.0,WNW,6.9,-,N/A,,Clear,290,2014-02-15 04:53:00
11:53 PM,-0.0,-2.9,88,30.12,10.0,NW,4.6,-,N/A,,Clear,320,2014-02-15 05:53:00